Retour au catalogue

MOBIUS-1

ActifScienceSSO
NORAD 64554·PAYLOAD·🇺🇸 United States

Lancé Jun 23, 2025 depuis Vandenberg Space Force Base

Loading…

Prochains Passages (prochaines 24 heures)

TLE

FraisSource: Space-Track

Époque: Sep 14, 2026, 13:39 UTC

1 64554U 25135AC  26257.56904467  .00017981  00000-0  55047-3 0  9993
2 64554  97.4716  15.4610 0001419  22.7176 337.4129 15.33879825 68696

Suivez MOBIUS-1 en temps réel avec AllMySat

Download on the App Store